SRQ306 RPVP-RPLL

Flight info

Callsign SRQ306
Flight time 1h 18m
Altitude 17000
Route NOMYO1E NOMYO M646 BUCAL BUCAL7R
Aircraft AT76/M-SDFGIRY/S

Departure

Time 2026-04-21 15:34
Airport Puerto Princesa International Airport / PAF Antonio Bautista Air Base (RPVP)

Arrival

Time 2026-04-21 16:52
Airport Ninoy Aquino International Airport (RPLL)
Time Latitude Longitude Altitude Speed Heading
2026-04-21 14:58 9.74368 118.75870 52 ft 0 kts
2026-04-21 15:22 9.74364 118.75870 52 ft 3 kts
2026-04-21 15:22 9.74347 118.75870 51 ft 1 kts 314°
2026-04-21 15:23 9.74336 118.75891 52 ft 3 kts 311°
2026-04-21 15:23 9.74340 118.75883 50 ft 3 kts 297°
2026-04-21 15:23 9.74345 118.75863 51 ft 6 kts 268°
2026-04-21 15:24 9.74329 118.75828 53 ft 0 kts 219°
2026-04-21 15:26 9.74328 118.75827 53 ft 1 kts 219°
2026-04-21 15:26 9.74315 118.75818 53 ft 3 kts 211°
2026-04-21 15:26 9.74280 118.75796 54 ft 5 kts 213°
2026-04-21 15:27 9.74259 118.75780 52 ft 6 kts 222°
2026-04-21 15:27 9.74236 118.75746 55 ft 6 kts 234°
2026-04-21 15:27 9.74223 118.75705 52 ft 6 kts 266°
2026-04-21 15:27 9.74229 118.75577 58 ft 22 kts 272°
2026-04-21 15:28 9.74234 118.75442 61 ft 18 kts 271°
2026-04-21 15:28 9.74239 118.75366 63 ft 14 kts 275°
2026-04-21 15:28 9.74265 118.75267 64 ft 8 kts 329°
2026-04-21 15:28 9.74282 118.75262 65 ft 7 kts 346°
2026-04-21 15:29 9.74362 118.75253 60 ft 9 kts 351°
2026-04-21 15:29 9.74410 118.75206 64 ft 10 kts 285°
2026-04-21 15:29 9.74420 118.75137 67 ft 10 kts 276°
2026-04-21 15:29 9.74423 118.75064 68 ft 10 kts 272°
2026-04-21 15:30 9.74426 118.74993 69 ft 10 kts 272°
2026-04-21 15:30 9.74429 118.74922 62 ft 10 kts 271°
2026-04-21 15:30 9.74428 118.74850 65 ft 10 kts 267°
2026-04-21 15:30 9.74426 118.74779 73 ft 10 kts 269°
2026-04-21 15:31 9.74417 118.74721 74 ft 7 kts 236°
2026-04-21 15:31 9.74389 118.74683 73 ft 9 kts 240°
2026-04-21 15:31 9.74346 118.74684 72 ft 3 kts 142°
2026-04-21 15:32 9.74339 118.74690 74 ft 5 kts 140°
2026-04-21 15:32 9.74299 118.74723 74 ft 10 kts 145°
2026-04-21 15:32 9.74263 118.74772 71 ft 9 kts 97°
2026-04-21 15:33 9.74263 118.74775 71 ft 1 kts 97°
2026-04-21 15:33 9.74255 118.74931 71 ft 57 kts 90°
2026-04-21 15:33 9.74228 118.75582 60 ft 123 kts 92°
2026-04-21 15:33 9.74195 118.76522 402 ft 141 kts 95°
2026-04-21 15:34 9.74139 118.77495 1123 ft 132 kts 90°
2026-04-21 15:34 9.74373 118.78457 1568 ft 149 kts 53°
2026-04-21 15:34 9.75219 118.79041 1787 ft 164 kts
2026-04-21 15:34 9.76390 118.79032 1960 ft 174 kts 356°
2026-04-21 15:35 9.77620 118.79113 2413 ft 178 kts
2026-04-21 15:35 9.78848 118.79327 2924 ft 180 kts
2026-04-21 15:35 9.80072 118.79645 3435 ft 182 kts 14°
2026-04-21 15:35 9.81268 118.80070 3898 ft 184 kts 17°
2026-04-21 15:36 9.82457 118.80544 4343 ft 186 kts 18°
2026-04-21 15:36 9.83669 118.81036 4813 ft 187 kts 18°
2026-04-21 15:36 9.84870 118.81515 5260 ft 187 kts 18°
2026-04-21 15:36 9.86075 118.81988 5687 ft 188 kts 17°
2026-04-21 15:37 9.87301 118.82465 6122 ft 190 kts 17°
2026-04-21 15:37 9.88544 118.82951 6550 ft 191 kts 18°
2026-04-21 15:37 9.89815 118.83341 6965 ft 188 kts
2026-04-21 15:37 9.91123 118.83336 7343 ft 188 kts 353°
2026-04-21 15:38 9.92419 118.83259 7742 ft 189 kts 352°
2026-04-21 15:38 9.93742 118.83173 8142 ft 190 kts 353°
2026-04-21 15:38 9.95060 118.83094 8530 ft 192 kts 353°
2026-04-21 15:38 9.96402 118.83038 8926 ft 193 kts 354°
2026-04-21 15:39 9.97753 118.82991 9325 ft 194 kts 354°
2026-04-21 15:39 9.99093 118.82950 9701 ft 195 kts 354°
2026-04-21 15:39 10.00464 118.82912 10069 ft 196 kts 355°
2026-04-21 15:39 10.01836 118.82871 10438 ft 198 kts 354°
2026-04-21 15:40 10.03204 118.82828 10794 ft 198 kts 354°
2026-04-21 15:40 10.04593 118.82786 11143 ft 200 kts 355°
2026-04-21 15:40 10.05975 118.82744 11484 ft 201 kts 355°
2026-04-21 15:40 10.07386 118.82701 11827 ft 202 kts 355°
2026-04-21 15:41 10.08788 118.82659 12166 ft 203 kts 355°
2026-04-21 15:41 10.10203 118.82616 12496 ft 204 kts 355°
2026-04-21 15:41 10.11634 118.82573 12817 ft 205 kts 355°
2026-04-21 15:41 10.13049 118.82528 13120 ft 206 kts 355°
2026-04-21 15:42 10.14481 118.82698 13318 ft 213 kts 23°
2026-04-21 15:42 10.15633 118.83640 13580 ft 218 kts 44°
2026-04-21 15:42 10.16649 118.84800 13901 ft 219 kts 47°
2026-04-21 15:42 10.17617 118.85962 14378 ft 210 kts 47°
2026-04-21 15:43 10.18530 118.87048 14845 ft 199 kts 47°
2026-04-21 15:43 10.19430 118.88088 15268 ft 190 kts 45°
2026-04-21 15:43 10.20302 118.89064 15596 ft 188 kts 45°
2026-04-21 15:43 10.21216 118.90052 15850 ft 192 kts 44°
2026-04-21 15:44 10.22130 118.91027 16138 ft 193 kts 44°
2026-04-21 15:44 10.23049 118.92044 16339 ft 198 kts 46°
2026-04-21 15:44 10.24009 118.93131 16342 ft 214 kts 46°
2026-04-21 15:44 10.25038 118.94279 16390 ft 226 kts 45°
2026-04-21 15:45 10.26098 118.95451 16592 ft 228 kts 45°
2026-04-21 15:45 10.27180 118.96645 16822 ft 229 kts 45°
2026-04-21 15:45 10.28283 118.97858 16929 ft 236 kts 45°
2026-04-21 15:45 10.29400 118.99085 16954 ft 244 kts 45°
2026-04-21 15:46 10.30578 119.00385 16951 ft 252 kts 45°
2026-04-21 15:46 10.31777 119.01706 16951 ft 258 kts 45°
2026-04-21 15:46 10.33012 119.03063 16949 ft 262 kts 45°
2026-04-21 15:46 10.34251 119.04425 16949 ft 265 kts 45°
2026-04-21 15:47 10.35695 119.05551 16947 ft 261 kts 24°
2026-04-21 15:47 10.37367 119.06290 16954 ft 262 kts 19°
2026-04-21 15:47 10.39053 119.06962 16959 ft 264 kts 19°
2026-04-21 15:47 10.40777 119.07669 16958 ft 266 kts 20°
2026-04-21 15:48 10.42465 119.08425 16958 ft 268 kts 22°
2026-04-21 15:48 10.44168 119.09222 16951 ft 269 kts 22°
2026-04-21 15:48 10.45886 119.10017 16956 ft 270 kts 22°
2026-04-21 15:48 10.47587 119.10800 16953 ft 270 kts 22°
2026-04-21 15:49 10.49303 119.11589 16948 ft 271 kts 22°
2026-04-21 15:49 10.51008 119.12373 16948 ft 271 kts 22°
2026-04-21 15:49 10.52738 119.13168 16954 ft 271 kts 22°
2026-04-21 15:49 10.54436 119.13952 16955 ft 271 kts 22°
2026-04-21 15:50 10.56165 119.14748 16954 ft 271 kts 22°
2026-04-21 15:50 10.57891 119.15543 16949 ft 271 kts 22°
2026-04-21 15:50 10.59596 119.16329 16946 ft 271 kts 22°
2026-04-21 15:50 10.61327 119.17125 16955 ft 271 kts 22°
2026-04-21 15:51 10.63040 119.17912 16957 ft 271 kts 22°
2026-04-21 15:51 10.64747 119.18697 16958 ft 271 kts 22°
2026-04-21 15:51 10.66473 119.19492 16959 ft 272 kts 22°
2026-04-21 15:51 10.68208 119.20292 16960 ft 272 kts 22°
2026-04-21 15:52 10.69909 119.21075 16960 ft 271 kts 22°
2026-04-21 15:52 10.71635 119.21872 16961 ft 271 kts 22°
2026-04-21 15:52 10.73363 119.22668 16962 ft 272 kts 22°
2026-04-21 15:52 10.75071 119.23460 16962 ft 272 kts 22°
2026-04-21 15:53 10.76801 119.24255 16950 ft 272 kts 22°
2026-04-21 15:53 10.78536 119.25054 16963 ft 271 kts 22°
2026-04-21 15:53 10.80237 119.25843 16964 ft 272 kts 22°
2026-04-21 15:53 10.81968 119.26640 16959 ft 272 kts 22°
2026-04-21 15:54 10.83678 119.27428 16970 ft 272 kts 22°
2026-04-21 15:54 10.85402 119.28223 16959 ft 272 kts 22°
2026-04-21 15:54 10.87131 119.29024 16967 ft 271 kts 22°
2026-04-21 15:54 10.88840 119.29812 16968 ft 271 kts 22°
2026-04-21 15:55 10.90563 119.30607 16969 ft 271 kts 22°
2026-04-21 15:55 10.92288 119.31408 16970 ft 272 kts 22°
2026-04-21 15:55 10.93995 119.32192 16971 ft 271 kts 22°
2026-04-21 15:55 10.95721 119.32988 16974 ft 271 kts 22°
2026-04-21 15:56 10.97430 119.33784 16978 ft 272 kts 22°
2026-04-21 15:56 10.99167 119.34582 16968 ft 272 kts 22°
2026-04-21 15:56 11.00875 119.35373 16978 ft 272 kts 22°
2026-04-21 15:56 11.02606 119.36175 16978 ft 272 kts 22°
2026-04-21 15:57 11.04319 119.36962 16973 ft 272 kts 22°
2026-04-21 15:57 11.06044 119.37764 16978 ft 272 kts 22°
2026-04-21 15:57 11.07776 119.38564 16978 ft 272 kts 22°
2026-04-21 15:57 11.09509 119.39362 16985 ft 272 kts 22°
2026-04-21 15:58 11.11210 119.40153 16964 ft 272 kts 22°
2026-04-21 15:58 11.12943 119.40952 16973 ft 272 kts 22°
2026-04-21 15:58 11.14649 119.41740 16972 ft 272 kts 22°
2026-04-21 15:58 11.16376 119.42543 16981 ft 272 kts 22°
2026-04-21 15:59 11.18106 119.43340 16973 ft 271 kts 22°
2026-04-21 15:59 11.19807 119.44128 16989 ft 271 kts 22°
2026-04-21 15:59 11.21534 119.44930 16986 ft 272 kts 22°
2026-04-21 15:59 11.23268 119.45733 16984 ft 272 kts 22°
2026-04-21 16:00 11.24992 119.46527 16995 ft 271 kts 22°
2026-04-21 16:00 11.26699 119.47320 16999 ft 272 kts 22°
2026-04-21 16:00 11.28416 119.48113 17000 ft 272 kts 22°
2026-04-21 16:00 11.30110 119.48901 16997 ft 272 kts 22°
2026-04-21 16:01 11.31834 119.49697 16996 ft 272 kts 22°
2026-04-21 16:01 11.33570 119.50499 17000 ft 271 kts 22°
2026-04-21 16:01 11.35272 119.51292 16999 ft 272 kts 22°
2026-04-21 16:01 11.36998 119.52090 17000 ft 271 kts 22°
2026-04-21 16:02 11.38726 119.52892 17000 ft 272 kts 22°
2026-04-21 16:02 11.40432 119.53682 17000 ft 272 kts 22°
2026-04-21 16:02 11.42162 119.54485 17001 ft 272 kts 22°
2026-04-21 16:02 11.43867 119.55276 17001 ft 272 kts 22°
2026-04-21 16:03 11.45603 119.56081 17000 ft 272 kts 22°
2026-04-21 16:03 11.47308 119.56869 17000 ft 272 kts 22°
2026-04-21 16:03 11.49041 119.57674 17000 ft 272 kts 22°
2026-04-21 16:03 11.50746 119.58464 17001 ft 272 kts 22°
2026-04-21 16:04 11.52479 119.59270 17000 ft 272 kts 22°
2026-04-21 16:04 11.54184 119.60061 17000 ft 272 kts 22°
2026-04-21 16:04 11.55916 119.60864 17000 ft 272 kts 22°
2026-04-21 16:04 11.57621 119.61655 17000 ft 272 kts 22°
2026-04-21 16:05 11.59355 119.62458 17000 ft 272 kts 22°
2026-04-21 16:05 11.61075 119.63259 17000 ft 272 kts 22°
2026-04-21 16:05 11.62786 119.64052 17000 ft 272 kts 22°
2026-04-21 16:05 11.64516 119.64856 17000 ft 272 kts 22°
2026-04-21 16:06 11.66244 119.65656 16999 ft 272 kts 22°
2026-04-21 16:06 11.67952 119.66448 17000 ft 272 kts 22°
2026-04-21 16:06 11.69662 119.67237 17000 ft 271 kts 22°
2026-04-21 16:06 11.71385 119.68038 17000 ft 272 kts 23°
2026-04-21 16:07 11.73114 119.68874 17000 ft 272 kts 22°
2026-04-21 16:07 11.74811 119.69680 17000 ft 272 kts 22°
2026-04-21 16:07 11.76532 119.70496 17000 ft 272 kts 22°
2026-04-21 16:07 11.78231 119.71301 17000 ft 272 kts 22°
2026-04-21 16:08 11.81676 119.72935 17000 ft 272 kts 22°
2026-04-21 16:08 11.83383 119.73745 17000 ft 272 kts 22°
2026-04-21 16:08 11.85111 119.74564 17001 ft 272 kts 22°
2026-04-21 16:09 11.86813 119.75372 17000 ft 272 kts 22°
2026-04-21 16:09 11.88539 119.76192 17000 ft 272 kts 22°
2026-04-21 16:09 11.90236 119.76997 17000 ft 272 kts 22°
2026-04-21 16:09 11.91962 119.77817 17000 ft 272 kts 22°
2026-04-21 16:10 11.93665 119.78626 17000 ft 272 kts 22°
2026-04-21 16:10 11.95398 119.79449 17000 ft 272 kts 22°
2026-04-21 16:10 11.97093 119.80255 17000 ft 272 kts 22°
2026-04-21 16:10 11.98819 119.81074 17000 ft 272 kts 22°
2026-04-21 16:11 12.00535 119.81889 17000 ft 272 kts 22°
2026-04-21 16:11 12.02241 119.82700 17000 ft 272 kts 22°
2026-04-21 16:11 12.03946 119.83510 17000 ft 272 kts 22°
2026-04-21 16:11 12.05671 119.84330 17000 ft 272 kts 22°
2026-04-21 16:12 12.06818 119.84873 17000 ft 272 kts 22°
2026-04-21 16:12 12.08513 119.85680 17000 ft 272 kts 22°
2026-04-21 16:12 12.10243 119.86503 17000 ft 272 kts 22°
2026-04-21 16:12 12.11939 119.87310 17000 ft 272 kts 22°
2026-04-21 16:13 12.13653 119.88125 17000 ft 272 kts 22°
2026-04-21 16:13 12.15376 119.88945 17001 ft 272 kts 22°
2026-04-21 16:13 12.17097 119.89764 17000 ft 272 kts 22°
2026-04-21 16:13 12.18798 119.90573 17000 ft 272 kts 22°
2026-04-21 16:14 12.20522 119.91392 17002 ft 272 kts 22°
2026-04-21 16:14 12.22240 119.92209 17001 ft 272 kts 22°
2026-04-21 16:14 12.23948 119.93023 17000 ft 272 kts 22°
2026-04-21 16:14 12.25655 119.93836 17001 ft 272 kts 22°
2026-04-21 16:15 12.27373 119.94655 17000 ft 272 kts 22°
2026-04-21 16:15 12.29095 119.95475 16999 ft 272 kts 22°
2026-04-21 16:15 12.30814 119.96293 17000 ft 272 kts 22°
2026-04-21 16:15 12.32518 119.97105 17004 ft 272 kts 22°
2026-04-21 16:16 12.34244 119.97926 17002 ft 272 kts 22°
2026-04-21 16:16 12.35948 119.98740 16999 ft 273 kts 22°
2026-04-21 16:16 12.37677 119.99563 17002 ft 273 kts 22°
2026-04-21 16:16 12.39386 120.00377 17003 ft 273 kts 22°
2026-04-21 16:17 12.41115 120.01204 16999 ft 273 kts 22°
2026-04-21 16:17 12.42838 120.02025 16996 ft 273 kts 22°
2026-04-21 16:17 12.44563 120.02845 16997 ft 272 kts 22°
2026-04-21 16:17 12.46267 120.03657 16998 ft 271 kts 22°
2026-04-21 16:18 12.47967 120.04469 16999 ft 271 kts 22°
2026-04-21 16:18 12.49691 120.05294 17000 ft 271 kts 22°
2026-04-21 16:18 12.51383 120.06100 17000 ft 271 kts 23°
2026-04-21 16:18 12.53098 120.06917 17000 ft 271 kts 22°
2026-04-21 16:19 12.54812 120.07737 17000 ft 271 kts 22°
2026-04-21 16:19 12.56514 120.08549 17000 ft 271 kts 22°
2026-04-21 16:19 12.58214 120.09365 17000 ft 271 kts 22°
2026-04-21 16:19 12.59929 120.10180 17001 ft 271 kts 22°
2026-04-21 16:20 12.61622 120.10988 17003 ft 271 kts 22°
2026-04-21 16:20 12.63319 120.11801 17000 ft 271 kts 22°
2026-04-21 16:20 12.64866 120.12541 16999 ft 271 kts 23°
2026-04-21 16:20 12.66364 120.13254 16999 ft 271 kts 22°
2026-04-21 16:21 12.68052 120.14061 17000 ft 271 kts 22°
2026-04-21 16:21 12.69772 120.14883 17000 ft 271 kts 22°
2026-04-21 16:21 12.71462 120.15693 17000 ft 271 kts 23°
2026-04-21 16:21 12.73184 120.16513 17001 ft 271 kts 22°
2026-04-21 16:22 12.74878 120.17325 17003 ft 271 kts 22°
2026-04-21 16:22 12.76595 120.18148 17003 ft 271 kts 22°
2026-04-21 16:22 12.78312 120.18965 17002 ft 271 kts 23°
2026-04-21 16:22 12.80000 120.19777 17000 ft 271 kts 22°
2026-04-21 16:23 12.81718 120.20598 17003 ft 272 kts 23°
2026-04-21 16:23 12.83432 120.21415 16998 ft 271 kts 23°
2026-04-21 16:23 12.85128 120.22230 16998 ft 271 kts 22°
2026-04-21 16:23 12.86853 120.23057 16999 ft 271 kts 23°
2026-04-21 16:24 12.88548 120.23864 16998 ft 271 kts 22°
2026-04-21 16:24 12.90272 120.24693 17000 ft 271 kts 22°
2026-04-21 16:24 12.91965 120.25504 17003 ft 271 kts 23°
2026-04-21 16:24 12.93676 120.26320 16999 ft 271 kts 22°
2026-04-21 16:25 12.95392 120.27146 16999 ft 271 kts 22°
2026-04-21 16:25 12.97089 120.27956 17000 ft 271 kts 23°
2026-04-21 16:25 12.98802 120.28780 17000 ft 271 kts 22°
2026-04-21 16:25 13.00502 120.29593 16999 ft 271 kts 23°
2026-04-21 16:26 13.02227 120.30420 17000 ft 271 kts 22°
2026-04-21 16:26 13.03918 120.31233 17000 ft 271 kts 22°
2026-04-21 16:26 13.05642 120.32057 17001 ft 271 kts 23°
2026-04-21 16:26 13.07338 120.32869 17000 ft 271 kts 22°
2026-04-21 16:27 13.09043 120.33690 17000 ft 271 kts 22°
2026-04-21 16:27 13.10741 120.34502 17002 ft 271 kts 23°
2026-04-21 16:27 13.12450 120.35323 17005 ft 271 kts 22°
2026-04-21 16:27 13.14163 120.36146 16999 ft 272 kts 23°
2026-04-21 16:28 13.15877 120.36968 16998 ft 271 kts 22°
2026-04-21 16:28 13.17591 120.37789 16999 ft 271 kts 22°
2026-04-21 16:28 13.19288 120.38606 17004 ft 271 kts 22°
2026-04-21 16:28 13.20995 120.39424 16999 ft 272 kts 22°
2026-04-21 16:29 13.22718 120.40250 16998 ft 271 kts 23°
2026-04-21 16:29 13.24411 120.41065 17001 ft 271 kts 22°
2026-04-21 16:29 13.26145 120.41897 17004 ft 272 kts 22°
2026-04-21 16:29 13.27842 120.42713 17001 ft 272 kts 22°
2026-04-21 16:30 13.29565 120.43534 16998 ft 272 kts 23°
2026-04-21 16:30 13.31268 120.44353 16997 ft 272 kts 22°
2026-04-21 16:30 13.32969 120.45169 16999 ft 271 kts 23°
2026-04-21 16:30 13.34677 120.45996 17000 ft 271 kts 22°
2026-04-21 16:31 13.36398 120.46823 17003 ft 271 kts 22°
2026-04-21 16:31 13.38101 120.47644 17007 ft 272 kts 22°
2026-04-21 16:31 13.39810 120.48465 17001 ft 272 kts 22°
2026-04-21 16:31 13.41540 120.49296 17002 ft 272 kts 23°
2026-04-21 16:32 13.43304 120.49870 17001 ft 265 kts
2026-04-21 16:32 13.45152 120.50079 16997 ft 265 kts
2026-04-21 16:32 13.46972 120.50319 16994 ft 265 kts
2026-04-21 16:32 13.48771 120.50666 16995 ft 265 kts
2026-04-21 16:33 13.50600 120.51089 16844 ft 272 kts 10°
2026-04-21 16:33 13.52465 120.51515 16675 ft 277 kts 10°
2026-04-21 16:33 13.54375 120.51934 16494 ft 282 kts
2026-04-21 16:33 13.56316 120.52359 16320 ft 285 kts
2026-04-21 16:34 13.58251 120.52781 16145 ft 288 kts
2026-04-21 16:34 13.59824 120.53123 16004 ft 289 kts
2026-04-21 16:34 13.61733 120.53540 15837 ft 291 kts
2026-04-21 16:34 13.63708 120.53971 15660 ft 292 kts
2026-04-21 16:35 13.65711 120.54406 15486 ft 293 kts
2026-04-21 16:35 13.67696 120.54840 15316 ft 294 kts
2026-04-21 16:35 13.69713 120.55278 15133 ft 294 kts
2026-04-21 16:35 13.71698 120.55714 14959 ft 295 kts
2026-04-21 16:36 13.73713 120.56152 14785 ft 295 kts
2026-04-21 16:36 13.75728 120.56593 14606 ft 295 kts
2026-04-21 16:36 13.77749 120.57032 14428 ft 295 kts
2026-04-21 16:36 13.79736 120.57466 14255 ft 296 kts
2026-04-21 16:37 13.81763 120.57910 14056 ft 296 kts
2026-04-21 16:37 13.83788 120.58351 13739 ft 301 kts
2026-04-21 16:37 13.85842 120.58801 13409 ft 298 kts 10°
2026-04-21 16:37 13.87857 120.59245 13082 ft 293 kts
2026-04-21 16:38 13.89826 120.59672 12752 ft 289 kts
2026-04-21 16:38 13.91800 120.60100 12445 ft 287 kts
2026-04-21 16:38 13.93750 120.60529 12128 ft 284 kts
2026-04-21 16:38 13.95659 120.60946 11819 ft 283 kts
2026-04-21 16:39 13.97595 120.61367 11513 ft 282 kts
2026-04-21 16:39 13.99517 120.61788 11193 ft 281 kts
2026-04-21 16:39 14.01407 120.62202 10907 ft 281 kts
2026-04-21 16:39 14.03331 120.62621 10597 ft 281 kts 10°
2026-04-21 16:40 14.05228 120.63041 10274 ft 280 kts
2026-04-21 16:40 14.07139 120.63459 9968 ft 279 kts
2026-04-21 16:40 14.09048 120.63874 9661 ft 278 kts
2026-04-21 16:40 14.10919 120.64282 9363 ft 277 kts
2026-04-21 16:41 14.12177 120.64560 9164 ft 277 kts
2026-04-21 16:41 14.14696 120.65110 8754 ft 276 kts
2026-04-21 16:41 14.16559 120.65515 8448 ft 275 kts
2026-04-21 16:41 14.18439 120.65921 8157 ft 274 kts
2026-04-21 16:42 14.20297 120.66324 7863 ft 274 kts
2026-04-21 16:42 14.22167 120.66730 7586 ft 273 kts
2026-04-21 16:42 14.24033 120.67137 7262 ft 273 kts
2026-04-21 16:42 14.25884 120.67544 6943 ft 270 kts
2026-04-21 16:43 14.27675 120.67940 6625 ft 258 kts
2026-04-21 16:43 14.29396 120.68323 6289 ft 248 kts
2026-04-21 16:43 14.31062 120.68695 5945 ft 241 kts
2026-04-21 16:43 14.32578 120.69277 5614 ft 235 kts 34°
2026-04-21 16:44 14.33578 120.70599 5288 ft 232 kts 60°
2026-04-21 16:44 14.34304 120.72063 4968 ft 229 kts 62°
2026-04-21 16:44 14.34994 120.73542 4638 ft 227 kts 63°
2026-04-21 16:44 14.35646 120.74963 4314 ft 208 kts 62°
2026-04-21 16:45 14.36297 120.76233 3977 ft 196 kts 58°
2026-04-21 16:45 14.36992 120.77415 3658 ft 191 kts 56°
2026-04-21 16:45 14.37695 120.78563 3365 ft 186 kts 56°
2026-04-21 16:45 14.38382 120.79679 3200 ft 186 kts 56°
2026-04-21 16:46 14.39049 120.80827 3130 ft 185 kts 58°
2026-04-21 16:46 14.39682 120.81963 3102 ft 182 kts 58°
2026-04-21 16:46 14.40289 120.83085 3092 ft 174 kts 59°
2026-04-21 16:46 14.40862 120.84144 3082 ft 166 kts 58°
2026-04-21 16:47 14.41413 120.85132 3066 ft 150 kts 57°
2026-04-21 16:47 14.41932 120.86024 3065 ft 145 kts 57°
2026-04-21 16:47 14.42453 120.86927 2979 ft 150 kts 57°
2026-04-21 16:47 14.42945 120.87835 2782 ft 139 kts 58°
2026-04-21 16:48 14.43418 120.88686 2586 ft 133 kts 57°
2026-04-21 16:48 14.43887 120.89487 2415 ft 129 kts 56°
2026-04-21 16:48 14.44328 120.90274 2224 ft 127 kts 58°
2026-04-21 16:48 14.44741 120.91046 2064 ft 122 kts 58°
2026-04-21 16:49 14.45154 120.91803 1927 ft 120 kts 56°
2026-04-21 16:49 14.45588 120.92562 1748 ft 126 kts 56°
2026-04-21 16:49 14.46035 120.93341 1582 ft 128 kts 57°
2026-04-21 16:49 14.46482 120.94138 1414 ft 126 kts 56°
2026-04-21 16:50 14.46916 120.94912 1260 ft 125 kts 56°
2026-04-21 16:50 14.47361 120.95698 1078 ft 126 kts 57°
2026-04-21 16:50 14.47791 120.96470 946 ft 120 kts 57°
2026-04-21 16:50 14.48214 120.97219 744 ft 122 kts 57°
2026-04-21 16:51 14.48630 120.97971 621 ft 119 kts 57°
2026-04-21 16:51 14.49063 120.98727 460 ft 124 kts 57°
2026-04-21 16:51 14.49485 120.99473 272 ft 120 kts 58°
2026-04-21 16:51 14.49897 121.00224 119 ft 117 kts 58°
2026-04-21 16:52 14.50278 121.00893 60 ft 97 kts 61°
2026-04-21 16:52 14.50454 121.01213 54 ft 30 kts 61°
2026-04-21 16:52 14.50519 121.01328 52 ft 26 kts 58°
2026-04-21 16:52 14.50631 121.01534 49 ft 23 kts 60°
2026-04-21 16:53 14.50715 121.01671 47 ft 22 kts 47°
2026-04-21 16:53 14.50824 121.01763 40 ft 17 kts 37°
2026-04-21 16:53 14.50876 121.01787 32 ft 10 kts 358°
2026-04-21 16:53 14.50905 121.01782 29 ft 1 kts 356°
2026-04-21 16:54 14.50921 121.01781 27 ft 0 kts 358°
2026-04-21 16:54 14.50937 121.01797 27 ft 7 kts 58°
2026-04-21 16:54 14.50972 121.01859 26 ft 11 kts 62°
2026-04-21 16:54 14.51015 121.01916 29 ft 8 kts 10°
2026-04-21 16:55 14.51067 121.01888 28 ft 9 kts 313°
2026-04-21 16:55 14.51112 121.01837 27 ft 10 kts 316°
2026-04-21 16:55 14.51161 121.01790 27 ft 10 kts 316°
2026-04-21 16:55 14.51206 121.01744 27 ft 9 kts 315°
2026-04-21 16:56 14.51235 121.01714 27 ft 9 kts 314°
2026-04-21 16:56 14.51277 121.01670 27 ft 8 kts 315°
2026-04-21 16:56 14.51316 121.01630 28 ft 8 kts 314°
2026-04-21 16:56 14.51353 121.01592 29 ft 8 kts 316°
2026-04-21 16:57 14.51378 121.01566 29 ft 8 kts 314°
2026-04-21 16:58 14.51729 121.01203 36 ft 14 kts 317°
2026-04-21 16:58 14.51799 121.01129 38 ft 15 kts 314°
2026-04-21 16:59 14.51872 121.01051 39 ft 15 kts 314°
2026-04-21 16:59 14.51950 121.00971 40 ft 16 kts 316°
2026-04-21 16:59 14.52030 121.00890 42 ft 16 kts 317°
2026-04-21 16:59 14.52111 121.00806 43 ft 17 kts 314°
2026-04-21 17:00 14.52166 121.00733 44 ft 4 kts 267°
2026-04-21 17:00 14.52137 121.00692 43 ft 11 kts 235°
2026-04-21 17:00 14.52145 121.00633 43 ft 15 kts 308°
2026-04-21 17:00 14.52263 121.00508 45 ft 21 kts 313°
2026-04-21 17:01 14.52372 121.00394 46 ft 22 kts 314°
2026-04-21 17:01 14.52447 121.00317 50 ft 9 kts 308°
2026-04-21 17:01 14.52452 121.00261 50 ft 4 kts 267°
2026-04-21 17:01 14.52452 121.00250 50 ft 3 kts 267°
2026-04-21 17:02 14.52451 121.00237 50 ft 0 kts 268°